Mytilini, Greece

9:34 PM EEST on October 19, 2018 (GMT +0300)
Odysseas Elytis

Weather History for LGMT - June, 2018

Change the Weather History Date:

Wednesday, June 13, 2018

  Actual Average Record
Temperature  
Mean Temperature 78 °F -  
Max Temperature 88 °F 85 °F 94 °F (2012)
Min Temperature 69 °F 69 °F 64 °F (2008)
Cooling Degree Days 14    
Growing Degree Days 28 (Base 50)    
Moisture  
Dew Point 53 °F    
Average Humidity 40    
Maximum Humidity 61    
Minimum Humidity 14    
Precipitation  
Precipitation 0.00 in 0.01 in - ()
Sea Level Pressure  
Sea Level Pressure 29.64 in    
Wind  
Wind Speed 5 mph ()    
Max Wind Speed 9 mph    
Max Gust Speed -    
Visibility 8.2 miles    
Events      
Averages and records for this station are not official NWS values.
T = Trace of Precipitation, MM = Missing Value Source: Averaged Metar Reports

Daily Weather History Graph

Daily Weather History Graph

Search for Another Location

Airport or City:

Astronomy

Jun. 13, 2018 Rise Set
Actual Time 5:47 AM EEST 8:40 PM EEST
Civil Twilight 5:15 AM EEST 9:12 PM EEST
Nautical Twilight 4:34 AM EEST 9:52 PM EEST
Astronomical Twilight 3:48 AM EEST 10:39 PM EEST
Moon 5:32 AM EEST (6/13) 8:14 PM EEST (6/13)
Length of Visible Light 15h 57m
Length of Day
14h 53m
Waning Crescent, 0% of the Moon is Illuminated
Jun 13
Waning Crescent
Jun 13
New
Jun 20
First Quarter
Jun 28
Full
Jul 6
Last Quarter

Hourly Weather History & Observations

Time (EEST) Temp. Heat Index Dew Point Humidity Pressure Visibility Wind Dir Wind Speed Gust Speed Precip Events Conditions
4:50 AM 69.8 °F - 53.6 °F 56% 29.68 in - WNW 4.6 mph - N/A   Clear
5:20 AM 69.8 °F - 53.6 °F 56% 29.68 in - WNW 4.6 mph - N/A   Clear
5:50 AM 69.8 °F - 55.4 °F 60% 29.68 in - WNW 4.6 mph - N/A   Clear
6:00 AM 69 °F - 54 °F 50% 29.70 in 6 mi NNW 4.6 mph - -  
6:50 AM 69.8 °F - 55.4 °F 60% 29.68 in - Variable 3.5 mph - N/A   Clear
7:20 AM 71.6 °F - 55.4 °F 57% 29.68 in - Variable 3.5 mph - N/A   Clear
7:50 AM 73.4 °F - 57.2 °F 57% 29.68 in - WNW 5.8 mph - N/A   Clear
8:20 AM 75.2 °F - 57.2 °F 53% 29.68 in - NNW 6.9 mph - N/A   Clear
8:50 AM 75.2 °F - 57.2 °F 53% 29.68 in - NNW 6.9 mph - N/A   Clear
9:00 AM 75 °F - 57 °F 43% 29.70 in 9 mi NNW 6.9 mph - -  
9:20 AM 75.2 °F - 57.2 °F 53% 29.68 in - NNW 6.9 mph - N/A   Clear
9:50 AM 75.2 °F - 60.8 °F 61% 29.68 in - NNW 6.9 mph - N/A   Clear
10:20 AM 75.2 °F - 60.8 °F 61% 29.68 in - NNW 9.2 mph - N/A   Clear
10:50 AM 77.0 °F - 60.8 °F 57% 29.68 in - NNW 8.1 mph - N/A   Clear
11:20 AM 78.8 °F - 60.8 °F 54% 29.68 in - NNW 8.1 mph - N/A   Clear
11:50 AM 80.6 °F 80.8 °F 57.2 °F 45% 29.65 in - NNW 8.1 mph - N/A   Clear
12:00 PM 81 °F - 56 °F 33% 29.67 in 9 mi NNW 8.1 mph - -  
12:20 PM 80.6 °F 80.5 °F 55.4 °F 42% 29.65 in - NNW 8.1 mph - N/A   Clear
12:50 PM 82.4 °F 81.7 °F 55.4 °F 39% 29.65 in - NNW 8.1 mph - N/A   Clear
1:20 PM 82.4 °F 81.7 °F 55.4 °F 39% 29.65 in - NNW 6.9 mph - N/A   Clear
1:50 PM 84.2 °F 83.0 °F 55.4 °F 37% 29.65 in - NNW 9.2 mph - N/A   Clear
2:20 PM 84.2 °F 83.0 °F 55.4 °F 37% 29.65 in - NNW 9.2 mph - N/A   Clear
2:50 PM 86.0 °F - 48.2 °F 27% 29.62 in - North 8.1 mph - N/A   Clear
3:00 PM 87 °F - 48 °F 17% 29.64 in 9 mi North 8.1 mph - -  
3:20 PM 87.8 °F - 48.2 °F 25% 29.62 in - North 9.2 mph - N/A   Clear
3:50 PM 87.8 °F - 48.2 °F 25% 29.62 in - North 9.2 mph - N/A   Clear
4:20 PM 87.8 °F - 48.2 °F 25% 29.62 in - North 9.2 mph - N/A   Clear
4:50 PM 86.0 °F - 48.2 °F 27% 29.59 in - NNE 6.9 mph - N/A   Clear
5:20 PM 86.0 °F - 48.2 °F 27% 29.59 in - ENE 5.8 mph - N/A   Clear
5:50 PM 86.0 °F - 44.6 °F 23% 29.59 in - Calm Calm - N/A   Clear
6:00 PM 86 °F - 45 °F 14% 29.61 in 9 mi Calm Calm - -  
6:20 PM 86.0 °F - 48.2 °F 27% 29.59 in - Calm Calm - N/A   Clear
6:50 PM 84.2 °F - 48.2 °F 29% 29.59 in - Calm Calm - N/A   Clear
7:20 PM 84.2 °F - 48.2 °F 29% 29.59 in - Calm Calm - N/A   Clear
7:50 PM 82.4 °F - 50.0 °F 32% 29.59 in - Calm Calm - N/A   Clear
8:20 PM 80.6 °F - 50.0 °F 34% 29.59 in - Calm Calm - N/A   Clear
9:00 PM 81 °F - 46 °F 19% 29.61 in 7 mi Calm Calm - -  
9:20 PM 78.8 °F - 48.2 °F 34% 29.59 in - Calm Calm - N/A   Clear
9:50 PM 77.0 °F - 48.2 °F 36% 29.59 in - Calm Calm - N/A   Clear
10:20 PM 75.2 °F - 48.2 °F 38% 29.62 in - Calm Calm - N/A   Clear
10:50 PM 75.2 °F - 48.2 °F 38% 29.62 in - Calm Calm - N/A   Clear